User: anonymous   Login
Location: Unspecified
(0.0000°N, 0.0000°E)
Time: 15:58:13
(UTC+00:00)
Language:

Delta IV Demo - Orbit

View from above orbital plane
View from above orbital plane
View from above satellite
View from above satellite

Ground track
Ground track

The orbit data is extracted from the following two-line orbital elements,

1 28500U 04050A   20049.57200536 -.00000133  00000-0  00000+0 0  9994
2 28500  16.5613  10.1860 2768561 235.1480 325.9591  1.41309503 78222
Epoch (UTC): 18 February 2020 13:43:41
Eccentricity: 0.2768561
inclination: 16.5613°
perigee height: 17879 km
apogee height: 36453 km
right ascension of ascending node: 10.1860°
argument of perigee: 235.1480°
revolutions per day: 1.41309503
mean anomaly at epoch: 325.9591°
orbit number at epoch: 7822

The dashed part of the orbit path shows where the satellite is in the earth's shadow,  

DLR